Home   Weather   Yuzhno-Sakhalinsk   Past weeks

Flag for Russia Past Weather in Yuzhno-Sakhalinsk, Russia — Yesterday and Last 2 Weeks

37 °F


Feels Like: 33 °F
Forecast: 29 / 36 °F
Wind: 6 mph from West

Location: Yuzhno Airport-Sakhalinsk

Current Time: Oct 26, 2016 at 8:30:38 PM

Latest Report: Oct 26, 2016 at 8:00 PM

Visibility: N/A

Pressure: 29.62 "Hg

Humidity: 52%

Dew Point: 21 °F

Location of Yuzhno-SakhalinskLocation

Past Weather in Yuzhno-Sakhalinsk — Graph


Yuzhno-Sakhalinsk Temperature Yesterday

Maximum temperature yesterday: 50 °F (at 4:00 PM)
Minimum temperature yesterday: 19 °F (at 6:00 AM)
Average temperature yesterday: 37 °F

High & Low Weather Summary for the Past Weeks

High64 °F (Oct 17, 2:00 PM)100% (Oct 12, 5:00 AM)30.15 "Hg (Oct 12, 5:00 AM)
Low19 °F (Oct 25, 6:00 AM)34% (Oct 25, 3:00 PM)29.50 "Hg (Oct 20, 8:00 AM)
Average40 °F77%29.86 "Hg
* Reported Oct 11 7:00 PM — Oct 26 7:00 PM, Yuzhno-Sakhalinsk, Weather by CustomWeather, © 2016

Note: Actual official high and low records may vary slightly from our data, if they occured in-between our weather recording intervals... More about our weather records


Yuzhno-Sakhalinsk Weather History for the Previous 24 Hours

Scroll right to see more
Time TempWeatherWind HumidityBarometerVisibility
7:00 PM
Wed, Oct 26
39 °FClear.8 mph52%29.59 "HgN/A
6:30 PM39 °FClear.10 mph52%29.56 "HgN/A
6:00 PM39 °FPassing clouds.13 mph52%29.56 "HgN/A
5:30 PM41 °FScattered clouds.10 mph53%29.56 "HgN/A
5:00 PM41 °FScattered clouds.13 mph57%29.53 "HgN/A
4:30 PM43 °FScattered clouds.15 mph57%29.53 "HgN/A
4:00 PM45 °FScattered clouds.13 mph57%29.50 "HgN/A
3:30 PM46 °FPassing clouds.13 mph53%29.50 "HgN/A
3:00 PM46 °FPassing clouds.10 mph53%29.50 "HgN/A
2:30 PM46 °FScattered clouds.17 mph50%29.50 "HgN/A
2:00 PM48 °FScattered clouds.10 mph54%29.53 "HgN/A
1:30 PM48 °FScattered clouds.13 mph54%29.56 "HgN/A
1:00 PM46 °FScattered clouds.13 mph57%29.56 "HgN/A
12:30 PM46 °FScattered clouds.10 mph57%29.59 "HgN/A
12:00 PM46 °FScattered clouds.8 mph62%29.59 "HgN/A
11:30 AM45 °FPassing clouds.6 mph66%29.59 "HgN/A
11:00 AM45 °FScattered clouds.6 mph76%29.59 "HgN/A
10:30 AM43 °FScattered clouds.1 mph81%29.59 "HgN/A
10:00 AM43 °FPassing clouds.6 mph81%29.59 "HgN/A
9:30 AM41 °FPassing clouds.3 mph81%29.59 "HgN/A
9:00 AM34 °FScattered clouds.No wind100%29.56 "HgN/A
8:30 AM36 °FScattered clouds.3 mph100%29.59 "HgN/A
8:00 AM37 °FChilly.1 mph100%29.56 "HgN/A
7:30 AM37 °FPassing clouds.1 mph93%29.59 "HgN/A
7:00 AM39 °FPassing clouds.1 mph93%29.56 "HgN/A
6:30 AM43 °FPassing clouds.6 mph81%29.56 "HgN/A
6:00 AM43 °FPassing clouds.6 mph81%29.56 "HgN/A
5:00 AM43 °FSprinkles. Overcast.1 mph93%29.56 "HgN/A
4:00 AM45 °FSprinkles. Overcast.3 mph100%29.56 "HgN/A
3:00 AM45 °FSprinkles. Overcast.8 mph100%29.59 "Hg4 mi
2:00 AM45 °FSprinkles. Passing clouds.10 mph100%29.59 "HgN/A
1:00 AM43 °FSprinkles. Passing clouds.8 mph100%29.65 "HgN/A
12:00 AM43 °FSprinkles. Passing clouds.8 mph100%29.68 "Hg6 mi
11:00 PM
Tue, Oct 25
39 °FSprinkles. Passing clouds.3 mph93%29.71 "Hg6 mi
10:30 PM41 °FClear.6 mph76%29.74 "HgN/A
10:00 PM37 °FClear.8 mph87%29.74 "HgN/A
9:30 PM37 °FClear.6 mph81%29.74 "HgN/A
9:00 PM39 °FClear.3 mph75%29.77 "HgN/A
8:30 PM41 °FClear.8 mph76%29.80 "HgN/A
8:00 PM41 °FClear.8 mph76%29.77 "HgN/A
Weather by CustomWeather, © 2016

See weather overviewHow to use our weather pages